General Mitchell International Airport Milwaukee US
ICAO: KMKE
IATA: MKE
Category: Large
Scheduled Services: Yes

Elevation: 723 ft
TransAlt. 18000 ft.

Airport Communications:
MILWAUKEE APP:118
ATIS:126.4
AWOS:148.35
MILWAUKEE CLNC DEL:120.8
MILWAUKEE DEP:119.65
MILWAUKEE GND:121.8
128ARW ANG COMD POST:32.1
440 BASE OPS:31.42
440 AW COMD POST:37.61
PTD:37.61
GREEN BAY RDO:122.4
MILWAUKEE TWR:119.1
UNICOM:122.95

KMKE Zoom In..

Runways:

(A) RW 01L length 9990 ft width 200 ft
ILS 110.30 / hdg 9

(B) RW 01R length 4183 ft width 150 ft
LOC 111.50 / hdg 9

(C) RW 07L length 4800 ft width 100 ft
LOC 111.50 / hdg 74

(D) RW 07R length 8300 ft width 150 ft
ILS 111.50 / hdg 74

(E) RW 13 length 5538 ft width 150 ft
LOC 111.50 / hdg 134

(F) RW 19L length 4183 ft width 150 ft
LOC 111.50 / hdg 189

(G) RW 19R length 9990 ft width 200 ft
ILS 110.30 / hdg 189

(H) RW 25L length 8300 ft width 150 ft
LOC 111.50 / hdg 254

(I) RW 25R length 4800 ft width 100 ft
LOC 111.50 / hdg 254

(J) RW 31 length 5538 ft width 150 ft
LOC 111.50 / hdg 314

Location; KMKE
Day. 25 / Time. 09.52 Zulu
* Altimeter: 30.10
* Temperature: 06° c. 42.8°f.
* Wind from: 010° Speed 18 kn with Gusts up to 27 kn.
Dewpoint: 01° c.
Visibility: 10 Statute Miles.
Clouds: Clear (automated report).

KMKE 250952Z 01018G27KT 10SM CLR 06/01 A3010 RMK AO2 PK WND 36029/0902 SLP195 T00560011 $


Wind From 010°
Speed 18 kn.

  YouTube Music Video
 
jpsmedia.com for Web Design  worldairports.se 2018   terms of use